User: anonymous   Login
Location: Unspecified
(0.0000°N, 0.0000°E)
Time: 09:27:18
(UTC+00:00)
Language:

NUDT-PHONESAT - Orbit

View from above orbital plane
View from above orbital plane
View from above satellite
View from above satellite

Ground track
Ground track

The orbit data is extracted from the following two-line orbital elements,

1 40900U 15049B   17327.76593734  .00004077  00000-0  18984-3 0  9997
2 40900  97.4432 333.5217 0014686  34.2919 325.9261 15.20390572120691
Epoch (UTC): 23 November 2017 18:22:56
Eccentricity: 0.0014686
inclination: 97.4432°
perigee height: 494 km
apogee height: 515 km
right ascension of ascending node: 333.5217°
argument of perigee: 34.2919°
revolutions per day: 15.20390572
mean anomaly at epoch: 325.9261°
orbit number at epoch: 12069

The dashed part of the orbit path shows where the satellite is in the earth's shadow,  

DLR